STARLINK-11274, 61001

Orbit data source: Space-Track

STARLINK-11274, 61001 is a payload satellite owned by SpaceX/Seattle (US) in LEO that was launched on Thu, 05 Sep 2024 UTC via an FALCON 9 launch vehicle from the Air Force Eastern Test Range (AFETR). Payloads include a variety of satellites, spacecraft, and rockets equipped with specific instruments for various scientific and technological missions. These include communications satellites like Starlink; space stations such as the ISS; scientific satellites like the Hubble; Earth observation satellites from companies like Planet Labs, Umbra, and HawkEye 360; GPS; miniature CubeSats for education and research; and military/defense satellites.

Loading next visibility...
STARLINK-11274 details
Identifier
61001, 2024-158M
Orbit
LEO
Last TLE update12 hours ago
Origin
Flag of USSpaceX/Seattle (US)
ManufacturerSpaceX/Seattle
MissionOperational spacecraft
Bus & MotorSTARLINK V2M, Unknown motor
Mass730 kg wet, ~700 kg dry
Launch date (UTC)
2024-09-05 (4 months ago)
Launch vehicle
FALCON 9
Launch site
Air Force Eastern Test Range (AFETR)
Object type
Payload
Rocket body
Debris
Shape & HBRUnknown
Radar Cross SectionLarge (>1 m²)

Expand to show TLE details & history

TLE from 12 hours ago
0 STARLINK-11274
1 61001U 24158M   24356.02701484 -.00003109  00000-0 -20815-4 0  9999
2 61001  53.1571 308.2632 0001173  74.5236 285.5912 15.69703205 17935
Epoch: 2024-12-21T00:38Z
Definitive object data (Epoch: 2024-12-21T00:38:54.082Z)
Latitude0.00005°
Longitude-151.54618°
Altitude360.449 km
Speed7.694 km/s
True Right ascension20h 33m 03s
True Declination0° 00' 00"
Sunlit
Object was in daylight at TLE epoch
Visualization TLE readout
Latitude8.72491°
Longitude-147.50184°
Altitude359.624 km
Speed7.696 km/s
Apparent Right ascension22h 07m 58s
Apparent Declination-16° 02' 30"
Sunlit
Object is in daylight
Visualization observer readout
Local Sidereal Time11:57:01
Azimuth52.625° ENE
Elevation-56.363°
Doppler factor1
Orbital elements
Apogee altitude360.798 km
Perigee altitude359.217 km
Semi-major axis6,738.144 km
Eccentricity0.0001173
Inclination53.1571°
RAAN308.2632°
Arg. of periapsis74.5236°
True anomaly285.57825°
Mean anomaly285.5912°
Eccentric anomaly285.58473°
Mean motion3.92403 °/min
BSTAR-0.000020815
Orbital period91.74 mins
Loading maneuver chart data...
Loading historical data...
Loading historical data...
Loading historical data...
Loading historical data...
Loading historical data...
Loading historical data...
Loading historical data...

STARLINK-11274 Visibility forecast

Observer location: undefined°, undefined

Span
Click to sort rows by Start time (UTC) header in descending order
Start Az.
Max El. time (UTC)
Max El. Az.
Max El.
End time (UTC)
End Az.
5 mins2024-12-21 23:45:08.335Z231.3° WSW2024-12-21 23:48:08.335Z36.681° NE42.408°2024-12-21 23:50:08.335Z48.361° ENE
4 mins2024-12-22 06:11:08.335Z327.801° NNW2024-12-22 06:12:08.335Z1.084° NNE37.912°2024-12-22 06:15:08.335Z117.077° SE
|